Stündliche Wetter Abasár

Heute, 24 Juni, Donnerstag

Zeit Temperatur Niederschläge Wind Luftdruck Luftfeuchtigkeit
00:00 +25°C° 0 mm 1 m/S 741 mmHg 73%
01:00 +24°C° 0 mm 1 m/S 741 mmHg 74%
02:00 +24°C° 0 mm 1 m/S 741 mmHg 76%
03:00 +23°C° 0 mm 1 m/S 741 mmHg 78%
04:00 +23°C° 0 mm 1 m/S 741 mmHg 79%
05:00 +24°C° 0 mm 2 m/S 741 mmHg 75%
06:00 +26°C° 0 mm 2 m/S 741 mmHg 72%
07:00 +28°C° 0 mm 2 m/S 741 mmHg 68%
08:00 +29°C° 0 mm 2 m/S 741 mmHg 62%
09:00 +31°C° 0 mm 2 m/S 741 mmHg 56%
10:00 +34°C° 0 mm 2 m/S 741 mmHg 50%
11:00 +34°C° 0 mm 3 m/S 741 mmHg 46%
12:00 +35°C° 0 mm 3 m/S 741 mmHg 42%
13:00 +36°C° 0 mm 3 m/S 741 mmHg 37%
14:00 +37°C° 0 mm 3 m/S 740 mmHg 37%
15:00 +37°C° 0 mm 3 m/S 740 mmHg 36%
16:00 +37°C° 0 mm 3 m/S 740 mmHg 36%
17:00 +35°C° 0 mm 2 m/S 739 mmHg 42%
18:00 +32°C° 0 mm 2 m/S 739 mmHg 49%
19:00 +30°C° 0 mm 1 m/S 739 mmHg 55%
20:00 +29°C° 0.1 mm 1 m/S 739 mmHg 58%
21:00 +27°C° 0.1 mm 1 m/S 739 mmHg 60%
22:00 +26°C° 0.1 mm 1 m/S 739 mmHg 63%
23:00 +25°C° 0.1 mm 1 m/S 739 mmHg 65%

Morgen, 25 Juni, Freitag

Zeit Temperatur Niederschläge Wind Luftdruck Luftfeuchtigkeit
00:00 +25°C° 0.1 mm 1 m/S 739 mmHg 67%
01:00 +24°C° 0.1 mm 1 m/S 739 mmHg 70%
02:00 +23°C° 0.1 mm 1 m/S 739 mmHg 72%
03:00 +23°C° 0.1 mm 1 m/S 739 mmHg 73%
04:00 +22°C° 0.1 mm 1 m/S 739 mmHg 75%
05:00 +23°C° 0.1 mm 1 m/S 739 mmHg 74%
06:00 +24°C° 0.1 mm 2 m/S 739 mmHg 74%
07:00 +25°C° 0.1 mm 2 m/S 740 mmHg 73%
08:00 +27°C° 0 mm 2 m/S 740 mmHg 66%
09:00 +28°C° 0 mm 3 m/S 740 mmHg 60%
10:00 +30°C° 0 mm 3 m/S 740 mmHg 53%
11:00 +30°C° 0 mm 4 m/S 740 mmHg 51%
12:00 +32°C° 0 mm 4 m/S 740 mmHg 49%
13:00 +32°C° 0 mm 4 m/S 740 mmHg 47%
14:00 +32°C° 0 mm 5 m/S 740 mmHg 47%
15:00 +30°C° 0 mm 5 m/S 739 mmHg 47%
16:00 +30°C° 0 mm 5 m/S 739 mmHg 46%
17:00 +28°C° 0 mm 5 m/S 739 mmHg 52%
18:00 +26°C° 0 mm 4 m/S 739 mmHg 58%
19:00 +25°C° 0 mm 4 m/S 739 mmHg 64%
20:00 +24°C° 0 mm 3 m/S 740 mmHg 66%
21:00 +23°C° 0 mm 2 m/S 740 mmHg 68%
22:00 +21°C° 0 mm 2 m/S 740 mmHg 70%
23:00 +20°C° 0 mm 2 m/S 740 mmHg 74%

übermorgen, 26 Juni, Samstag

Zeit Temperatur Niederschläge Wind Luftdruck Luftfeuchtigkeit
00:00 +19°C° 0 mm 2 m/S 741 mmHg 77%
01:00 +19°C° 0 mm 1 m/S 741 mmHg 81%
02:00 +19°C° 0 mm 1 m/S 741 mmHg 83%
03:00 +18°C° 0 mm 1 m/S 741 mmHg 85%
04:00 +18°C° 0 mm 1 m/S 741 mmHg 87%
05:00 +19°C° 0.4 mm 1 m/S 741 mmHg 85%
06:00 +20°C° 0.4 mm 1 m/S 741 mmHg 82%
07:00 +22°C° 0.4 mm 1 m/S 742 mmHg 79%
08:00 +23°C° 0.1 mm 1 m/S 742 mmHg 73%
09:00 +25°C° 0.1 mm 2 m/S 742 mmHg 66%
10:00 +26°C° 0.1 mm 2 m/S 742 mmHg 59%
11:00 +26°C° 0.2 mm 2 m/S 742 mmHg 59%
12:00 +27°C° 0.2 mm 1 m/S 741 mmHg 58%
13:00 +27°C° 0.2 mm 1 m/S 741 mmHg 57%
14:00 +27°C° 0.2 mm 1 m/S 741 mmHg 56%
15:00 +28°C° 0.2 mm 1 m/S 741 mmHg 55%
16:00 +28°C° 0.2 mm 1 m/S 741 mmHg 54%
17:00 +27°C° 0.1 mm 1 m/S 741 mmHg 59%
18:00 +25°C° 0.1 mm 1 m/S 741 mmHg 65%
19:00 +24°C° 0.1 mm 1 m/S 741 mmHg 70%
20:00 +23°C° 0.3 mm 2 m/S 741 mmHg 75%
21:00 +20°C° 0.3 mm 2 m/S 741 mmHg 79%
22:00 +19°C° 0.3 mm 2 m/S 741 mmHg 84%
23:00 +19°C° 0 mm 1 m/S 741 mmHg 85%

27 Juni, Sonntag

Zeit Temperatur Niederschläge Wind Luftdruck Luftfeuchtigkeit
00:00 +19°C° 0 mm 1 m/S 741 mmHg 85%
01:00 +19°C° 0 mm 1 m/S 741 mmHg 86%
02:00 +19°C° 0 mm 1 m/S 741 mmHg 86%
03:00 +18°C° 0 mm 1 m/S 741 mmHg 87%
04:00 +18°C° 0 mm 1 m/S 741 mmHg 88%
05:00 +20°C° 0 mm 1 m/S 742 mmHg 82%
06:00 +21°C° 0 mm 1 m/S 742 mmHg 76%
07:00 +23°C° 0 mm 1 m/S 742 mmHg 70%
08:00 +25°C° 0 mm 1 m/S 742 mmHg 62%
09:00 +27°C° 0 mm 1 m/S 742 mmHg 55%
10:00 +28°C° 0 mm 1 m/S 742 mmHg 48%
11:00 +29°C° 0 mm 1 m/S 742 mmHg 45%
12:00 +30°C° 0 mm 1 m/S 742 mmHg 42%
13:00 +31°C° 0 mm 1 m/S 741 mmHg 39%
14:00 +30°C° 0 mm 1 m/S 741 mmHg 40%
15:00 +30°C° 0 mm 1 m/S 741 mmHg 41%
16:00 +30°C° 0 mm 1 m/S 741 mmHg 42%
17:00 +29°C° 0 mm 1 m/S 741 mmHg 47%
18:00 +27°C° 0 mm 1 m/S 741 mmHg 52%
19:00 +26°C° 0 mm 1 m/S 741 mmHg 57%
20:00 +25°C° 0 mm 1 m/S 741 mmHg 59%
21:00 +24°C° 0 mm 1 m/S 741 mmHg 61%
22:00 +23°C° 0 mm 1 m/S 741 mmHg 63%
23:00 +22°C° 0 mm 1 m/S 742 mmHg 65%

28 Juni, Montag

Zeit Temperatur Niederschläge Wind Luftdruck Luftfeuchtigkeit
00:00 +21°C° 0 mm 1 m/S 742 mmHg 68%
01:00 +21°C° 0 mm 1 m/S 742 mmHg 71%
02:00 +20°C° 0 mm 1 m/S 742 mmHg 73%
03:00 +20°C° 0 mm 1 m/S 742 mmHg 74%
04:00 +19°C° 0 mm 1 m/S 742 mmHg 76%
05:00 +21°C° 0 mm 1 m/S 742 mmHg 71%
06:00 +23°C° 0 mm 1 m/S 743 mmHg 65%
07:00 +25°C° 0 mm 1 m/S 743 mmHg 60%
08:00 +26°C° 0 mm 1 m/S 743 mmHg 55%
09:00 +28°C° 0 mm 1 m/S 743 mmHg 50%
10:00 +30°C° 0 mm 1 m/S 743 mmHg 45%
11:00 +31°C° 0 mm 1 m/S 742 mmHg 42%
12:00 +31°C° 0 mm 1 m/S 742 mmHg 39%
13:00 +32°C° 0 mm 1 m/S 742 mmHg 36%
14:00 +32°C° 0 mm 1 m/S 742 mmHg 36%
15:00 +32°C° 0 mm 1 m/S 741 mmHg 35%
16:00 +34°C° 0 mm 2 m/S 741 mmHg 34%
17:00 +31°C° 0 mm 1 m/S 741 mmHg 40%
18:00 +29°C° 0 mm 1 m/S 741 mmHg 47%
19:00 +27°C° 0 mm 1 m/S 741 mmHg 53%
20:00 +26°C° 0 mm 1 m/S 741 mmHg 54%
21:00 +25°C° 0 mm 2 m/S 741 mmHg 55%
22:00 +24°C° 0 mm 2 m/S 741 mmHg 56%
23:00 +23°C° 0 mm 2 m/S 741 mmHg 58%

29 Juni, Dienstag

Zeit Temperatur Niederschläge Wind Luftdruck Luftfeuchtigkeit
00:00 +22°C° 0 mm 1 m/S 741 mmHg 60%
01:00 +22°C° 0 mm 1 m/S 741 mmHg 63%
02:00 +22°C° 0 mm 1 m/S 741 mmHg 64%
03:00 +21°C° 0 mm 1 m/S 741 mmHg 66%
04:00 +21°C° 0 mm 1 m/S 741 mmHg 67%
05:00 +23°C° 0 mm 1 m/S 741 mmHg 63%
06:00 +24°C° 0 mm 1 m/S 741 mmHg 59%
07:00 +26°C° 0 mm 2 m/S 742 mmHg 55%
08:00 +28°C° 0 mm 2 m/S 742 mmHg 50%
09:00 +30°C° 0 mm 2 m/S 742 mmHg 45%
10:00 +32°C° 0 mm 2 m/S 742 mmHg 40%
11:00 +34°C° 0 mm 2 m/S 741 mmHg 38%
12:00 +34°C° 0 mm 2 m/S 741 mmHg 35%
13:00 +35°C° 0 mm 2 m/S 741 mmHg 32%
14:00 +35°C° 0 mm 2 m/S 741 mmHg 32%
15:00 +36°C° 0 mm 2 m/S 741 mmHg 32%
16:00 +36°C° 0 mm 2 m/S 740 mmHg 31%
17:00 +34°C° 0 mm 2 m/S 740 mmHg 37%
18:00 +31°C° 0 mm 2 m/S 740 mmHg 43%
19:00 +29°C° 0 mm 3 m/S 740 mmHg 49%
20:00 +28°C° 0 mm 3 m/S 740 mmHg 49%
21:00 +26°C° 0 mm 2 m/S 740 mmHg 49%
22:00 +25°C° 0 mm 2 m/S 740 mmHg 48%
23:00 +25°C° 0 mm 2 m/S 740 mmHg 51%
Mehr zeigen

Wir brauchen deine Erlaubnis

Meteoprog und unser Service Anbieter werden persönliche Daten aufbewahren, so wie Cookies, Geräte Bezeichnung oder ähnliche Technologien von deinem Gerät und Prozess, so wie Persönliche Daten Inhalte und Werbungen, genauso wie social Media und den Verkehr zu analysieren.

  • Aufbewahrung und/oder Zugang zu deiner Geräte Informationen.

    Cookies, Geräte Bezeichnung oder andere Informationen, können aufbewahrt oder Zugang zu deinem Gerät erhalten, für den Grund, der oben angegeben wird.

  • Personalisierte Werbung und Inhalte, Messungen, Einblick in das Publikum und Produkt Entwicklung.

    Werbungen und Inhalte können personalisiert werden, basierend auf ein Profil. Mehr Daten können besser personalisierte Werbungen und Inhalte hinzufügen. Werbung und Inhalte können gezeigt und gemessen werden. Einblicke über das Publikum, welche die Werbung gesehen haben und den Inhalt, können abgeleitet werden. So wie Daten können genutzt werden, um es zu verbessern oder die Benutzer Erfahrung zu verbessern das System und die Software.

Wenn du “Ich stimme zu” klickst, erlaubst du uns, die Cookies zu benutzen die Geräte Bezeichnung, den Web oder ähnliche Technologien zu benutzen. Deine Settings, können in deinem Gerät bei deinem Browser geändert werden.

Für den bestimmten Zweck, berechtigten Interessen beruhen darauf, mehr als auf den Inhalt. Du kannst mehr darüber in unseren Privaten und Cookie Politik lesen.